Memphis, TN (37501)

8:49 PM CST on February 11, 2016 (GMT -0600)
Midtown Memphis (OEM) | | Change Station
CLOSE
Current Station
Personal Weather Station
Location: Memphis, TN
Elevation: 320 ft
Nearby Weather Stations

Elev 320 ft 35.13 °N, 89.97 °W | Updated 4 minutes ago

Scattered Clouds
Scattered Clouds
42.0 °F
Feels Like 40 °F
N
4.0
Wind Variable Wind from ENE
Gusts 6.0 mph

Today
High -- | Low -- °F
--% Chance of Precip.
Yesterday
High -- | Low -- °F
Precip. -- in
Pressure 30.23 in
Visibility 10.0 miles
Clouds Scattered Clouds 25000 ft
Windchill 40 °F
Dew Point 28 °F
Humidity 58%
Rainfall 0.00 in
Snow Depth Not available.
6:50 AM 5:38 PM
Waxing Crescent, 16% visible
METAR KMEM 120154Z 05008KT 10SM SCT250 06/M04 A3023 RMK AO2 SLP237 T00611044
Pressure 30.23 in
Visibility 10.0 miles
Clouds Scattered Clouds 25000 ft
Windchill 40 °F
Dew Point 28 °F
Humidity 58%
Rainfall 0.00 in
Snow Depth Not available.
6:50 AM 5:38 PM
Waxing Crescent, 16% visible
METAR KMEM 120154Z 05008KT 10SM SCT250 06/M04 A3023 RMK AO2 SLP237 T00611044

10-Day Weather Forecast

Almanac

Astronomy

Feb. 11, 2016 Rise Set
Actual Time
Civil Twilight
Nautical Twilight
Astronomical Twilight
Moon
Length of Visible Light
Length of Day
Tomorrow will be .
, % of the Moon is Illuminated

Today's Extremes

State Highs State Lows

Community

WunderPhotos

Upload Photos

1,892,226 photos uploaded!

WunderBlog® & News

Nearby

Air Quality

  Air Quality AQ Index Pollutant
Not available.

Snow Depth

Station Depth Elevation

Earthquake Activity

City Distance Mag. Time & Date
Minimum magnitude displayed is 2.5.

Coastal Water Temperatures

Place Temperature

Stations

Nearby Weather Stations

Station Location Temp. Windchill Dew Point Humidity Wind Precip. Elev Updated Type
                   

Watches & Warnings

There are currently no watches in effect.